ボアッティーニ彗星

C/2010 U3 ( Boattini )

English version
Home page
Updated on June 14, 2021

---------------------------------------------------------------------

・ プロフィール

発見日 2010年10月31日
発見光度 19.4等
発見者 A. Boattini (Mt. Lemmon)

・ 写真集

・ 軌道要素

Epoch 2019 Mar. 18.0 TT = JDT 2458560.5
T 2019 Feb. 26.61943 TT                                 Rudenko
q   8.4455415            (2000.0)            P               Q
z  +0.0001952      Peri.   88.08613     -0.36204477     -0.74305740
 +/-0.0000002      Node    43.06734     +0.07255991     -0.62443448
e   0.9983515      Incl.   55.51181     +0.92933237     -0.24072242
From 2525 observations 2005 Nov. 5-2021 May 9, mean residual 0".8.

・ 星図

・ 光度変化

        m1 = 5.5 + 5 logΔ +  7.0 log r(t + 800)  [    ,-800]  (              〜2016年12月18日)
        m1 = 2.7 + 5 logΔ + 10.0 log r(t + 800)  [-800,    ]  (2016年12月18日〜              )

---------------------------------------------------------------------

軌道要素はM.P.E.C. 2021-L04に掲載されたものです。
星図はステラナビゲータ Ver.8 (アストロアーツ) で作成したものです。
光度グラフはComet for Windowsで作成したものです。

---------------------------------------------------------------------

Copyright(C) Seiichi Yoshida (comet@aerith.net). All rights reserved.